| time (UTC) | temp C | wind direction | speed KPH | gust KPH | rain 1hr cm | rain 24hr cm | rain mn cm | humidity % | barometer mb |
| 20260506191458 | 23 | 256 | 0.0 | 0.0 | 0.00 | 0.03 | 0.03 | 99 | 1004.1 |
| 20260506190955 | 23 | 259 | 0.0 | 0.0 | 0.00 | 0.03 | 0.03 | 99 | 1004.2 |
| 20260506190452 | 23 | 263 | 0.0 | 0.0 | 0.00 | 0.03 | 0.03 | 99 | 1004.1 |
| 20260506185948 | 23 | 271 | 0.0 | 0.0 | 0.00 | 0.03 | 0.03 | 99 | 1004.0 |
| 20260506185446 | 23 | 288 | 0.0 | 1.6 | 0.00 | 0.03 | 0.03 | 99 | 1004.1 |
| 20260506184942 | 23 | 270 | 0.0 | 1.6 | 0.00 | 0.03 | 0.03 | 99 | 1004.3 |
| 20260506184439 | 23 | 321 | 3.2 | 3.2 | 0.00 | 0.03 | 0.03 | 99 | 1004.1 |
| 20260506183936 | 23 | 280 | 1.6 | 3.2 | 0.00 | 0.03 | 0.03 | 99 | 1004.4 |
| 20260506183432 | 23 | 297 | 1.6 | 3.2 | 0.00 | 0.03 | 0.03 | 99 | 1004.6 |
| 20260506182929 | 23 | 280 | 0.0 | 1.6 | 0.00 | 0.03 | 0.03 | 99 | 1004.8 |
| 20260506182426 | 23 | 269 | 1.6 | 1.6 | 0.00 | 0.03 | 0.03 | 99 | 1004.7 |
| 20260506181924 | 23 | 266 | 0.0 | 1.6 | 0.18 | 0.03 | 0.03 | 99 | 1004.7 |
| 20260506181422 | 23 | 262 | 0.0 | 1.6 | 0.18 | 0.03 | 0.03 | 99 | 1005.0 |
| 20260506180918 | 23 | 271 | 0.0 | 1.6 | 0.00 | 0.00 | 0.00 | 99 | 1005.2 |
| 20260506180414 | 23 | 268 | 0.0 | 1.6 | 0.00 | 0.00 | 0.00 | 99 | 1005.2 |
| 20260506175911 | 23 | 267 | 0.0 | 1.6 | 0.00 | 0.00 | 0.00 | 99 | 1005.1 |
| 20260506175408 | 23 | 260 | 0.0 | 1.6 | 0.00 | 0.00 | 0.00 | 99 | 1005.1 |
| 20260506174905 | 23 | 261 | 0.0 | 0.0 | 0.00 | 0.00 | 0.00 | 99 | 1005.0 |
| 20260506174403 | 23 | 292 | 0.0 | 1.6 | 0.00 | 0.00 | 0.00 | 99 | 1005.2 |
| 20260506173900 | 23 | 282 | 1.6 | 1.6 | 0.00 | 0.00 | 0.00 | 99 | 1005.1 |
| 20260506173356 | 23 | 256 | 1.6 | 1.6 | 0.00 | 0.00 | 0.00 | 99 | 1005.2 |
| 20260506172853 | 23 | 262 | 1.6 | 3.2 | 0.00 | 0.00 | 0.00 | 99 | 1005.4 |
| 20260506172350 | 23 | 327 | 1.6 | 1.6 | 0.00 | 0.00 | 0.00 | 99 | 1005.1 |
| 20260506171847 | 23 | 265 | 0.0 | 1.6 | 0.00 | 0.00 | 0.00 | 99 | 1005.0 |
| 20260506171344 | 23 | 262 | 0.0 | 0.0 | 0.00 | 0.00 | 0.00 | 99 | 1005.3 |
| 20260506170842 | 23 | 250 | 0.0 | 0.0 | 0.00 | 0.00 | 0.00 | 99 | 1005.6 |
| 20260506170337 | 23 | 247 | 0.0 | 0.0 | 0.00 | 0.00 | 0.00 | 99 | 1005.6 |
| 20260506165832 | 23 | 246 | 0.0 | 0.0 | 0.00 | 0.00 | 0.00 | 99 | 1005.8 |
| 20260506165329 | 23 | 246 | 0.0 | 0.0 | 0.00 | 0.00 | 0.00 | 99 | 1005.8 |
| 20260506164825 | 23 | 247 | 0.0 | 0.0 | 0.00 | 0.00 | 0.00 | 99 | 1005.8 |
| 20260506164322 | 23 | 250 | 0.0 | 0.0 | 0.00 | 0.00 | 0.00 | 99 | 1005.7 |
| 20260506163819 | 23 | 249 | 0.0 | 0.0 | 0.00 | 0.00 | 0.00 | 99 | 1005.8 |
| 20260506163314 | 23 | 245 | 0.0 | 0.0 | 0.00 | 0.00 | 0.00 | 99 | 1006.2 |
| 20260506162809 | 23 | 249 | 0.0 | 0.0 | 0.00 | 0.00 | 0.00 | 99 | 1006.1 |
| 20260506162308 | 23 | 239 | 0.0 | 0.0 | 0.00 | 0.00 | 0.00 | 99 | 1006.3 |
| 20260506161805 | 23 | 244 | 0.0 | 0.0 | 0.00 | 0.00 | 0.00 | 99 | 1006.4 |
| 20260506161302 | 23 | 249 | 0.0 | 0.0 | 0.00 | 0.00 | 0.00 | 99 | 1006.6 |
| 20260506160800 | 23 | 244 | 0.0 | 0.0 | 0.00 | 0.00 | 0.00 | 99 | 1006.4 |
| 20260506160256 | 23 | 247 | 0.0 | 0.0 | 0.00 | 0.00 | 0.00 | 99 | 1006.4 |
| 20260506155755 | 23 | 239 | 0.0 | 0.0 | 0.00 | 7.75 | 7.75 | 99 | 1006.6 |
| 20260506155251 | 23 | 249 | 0.0 | 0.0 | 0.00 | 7.75 | 7.75 | 99 | 1006.2 |
| 20260506153404 | 24 | 239 | 0.0 | 0.0 | 0.00 | 7.75 | 7.75 | 99 | 1006.6 |
| 20260506152901 | 23 | 244 | 0.0 | 3.2 | 0.00 | 7.75 | 7.75 | 99 | 1006.3 |
| 20260506152358 | 24 | 265 | 1.6 | 3.2 | 0.00 | 7.75 | 7.75 | 99 | 1006.3 |
| 20260506151857 | 24 | 251 | 0.0 | 0.0 | 0.00 | 7.75 | 7.75 | 99 | 1006.3 |
| 20260506151353 | 24 | 248 | 0.0 | 0.0 | 0.00 | 7.75 | 7.75 | 99 | 1006.3 |
| 20260506150851 | 24 | 236 | 0.0 | 1.6 | 0.00 | 7.75 | 7.75 | 99 | 1006.3 |
| 20260506150347 | 24 | 252 | 0.0 | 3.2 | 0.00 | 7.75 | 7.75 | 99 | 1006.2 |
| 20260506145844 | 24 | 248 | 0.0 | 3.2 | 0.00 | 7.75 | 7.75 | 99 | 1005.9 |
| 20260506145340 | 24 | 255 | 1.6 | 4.8 | 0.00 | 7.75 | 7.75 | 99 | 1005.9 |
| 20260506144838 | 24 | 267 | 1.6 | 1.6 | 0.00 | 7.75 | 7.75 | 99 | 1006.0 |
| 20260506144334 | 24 | 248 | 0.0 | 0.0 | 0.00 | 7.75 | 7.75 | 99 | 1005.9 |
| 20260506143833 | 24 | 235 | 1.6 | 1.6 | 0.00 | 7.75 | 7.75 | 99 | 1005.6 |
| 20260506143329 | 24 | 236 | 0.0 | 0.0 | 0.00 | 7.75 | 7.75 | 99 | 1005.8 |
| 20260506142827 | 24 | 252 | 0.0 | 1.6 | 0.00 | 7.75 | 7.75 | 99 | 1005.7 |
| 20260506142325 | 24 | 246 | 0.0 | 0.0 | 0.00 | 7.75 | 7.75 | 99 | 1005.7 |
| 20260506141823 | 24 | 260 | 0.0 | 0.0 | 0.13 | 7.75 | 7.75 | 99 | 1005.6 |
| 20260506141321 | 24 | 271 | 0.0 | 0.0 | 0.43 | 7.75 | 7.75 | 99 | 1005.4 |
| 20260506140819 | 23 | 224 | 1.6 | 1.6 | 0.43 | 7.70 | 7.70 | 99 | 1005.4 |
| 20260506140315 | 23 | 250 | 1.6 | 1.6 | 1.07 | 7.67 | 7.67 | 99 | 1005.6 |
| 20260506135812 | 23 | 243 | 3.2 | 3.2 | 0.43 | 7.57 | 7.57 | 99 | 1005.7 |
| 20260506135308 | 23 | 245 | 0.0 | 0.0 | 0.61 | 7.49 | 7.49 | 99 | 1005.7 |
| 20260506134805 | 23 | 241 | 0.0 | 3.2 | 1.19 | 7.49 | 7.49 | 99 | 1005.8 |
| 20260506134302 | 23 | 234 | 3.2 | 3.2 | 0.30 | 7.34 | 7.34 | 99 | 1005.6 |
| 20260506133759 | 23 | 259 | 3.2 | 8.0 | 0.00 | 7.29 | 7.29 | 99 | 1005.8 |
| 20260506133256 | 23 | 257 | 4.8 | 8.0 | 0.00 | 7.29 | 7.29 | 99 | 1005.6 |
| 20260506132752 | 24 | 241 | 1.6 | 3.2 | 0.66 | 7.29 | 7.29 | 99 | 1005.4 |
| 20260506132250 | 24 | 241 | 1.6 | 9.7 | 2.64 | 7.29 | 7.29 | 99 | 1005.1 |
| 20260506131748 | 23 | 329 | 4.8 | 9.7 | 5.23 | 7.11 | 7.11 | 99 | 1005.3 |
| 20260506131243 | 25 | 307 | 4.8 | 8.0 | 10.08 | 6.68 | 6.68 | 99 | 1005.3 |
| 20260506130740 | 25 | 307 | 4.8 | 8.0 | 11.10 | 5.92 | 5.92 | 99 | 1005.1 |
| 20260506130237 | 25 | 263 | 3.2 | 8.0 | 9.91 | 4.52 | 4.52 | 99 | 1005.0 |
| 20260506125735 | 25 | 268 | 0.0 | 3.2 | 7.92 | 3.94 | 3.94 | 99 | 1004.8 |
| 20260506125233 | 25 | 17 | 3.2 | 3.2 | 3.96 | 3.02 | 3.02 | 99 | 1004.8 |
| 20260506124731 | 25 | 253 | 0.0 | 1.6 | 3.35 | 2.59 | 2.59 | 99 | 1004.4 |
| 20260506124228 | 25 | 217 | 3.2 | 4.8 | 1.37 | 2.21 | 2.21 | 99 | 1004.2 |
| 20260506123726 | 25 | 48 | 4.8 | 8.0 | 1.27 | 2.03 | 2.03 | 99 | 1003.9 |
| 20260506123224 | 25 | 358 | 4.8 | 12.9 | 5.46 | 1.96 | 1.96 | 99 | 1003.8 |
| 20260506122721 | 25 | 330 | 14.5 | 24.1 | 6.07 | 1.83 | 1.83 | 99 | 1003.4 |
| 20260506122218 | 26 | 20 | 8.0 | 11.3 | 0.79 | 0.94 | 0.94 | 99 | 1003.4 |
| 20260506121716 | 26 | 33 | 4.8 | 12.9 | 0.30 | 0.81 | 0.81 | 99 | 1003.3 |
| 20260506121212 | 26 | 311 | 6.4 | 16.1 | 0.89 | 0.81 | 0.81 | 99 | 1003.1 |
| 20260506120710 | 26 | 250 | 6.4 | 11.3 | 1.98 | 0.74 | 0.74 | 98 | 1002.9 |
| 20260506120208 | 26 | 297 | 8.0 | 12.9 | 1.50 | 0.64 | 0.64 | 98 | 1003.3 |
| 20260506115706 | 26 | 262 | 3.2 | 4.8 | 0.61 | 0.41 | 0.41 | 97 | 1003.0 |
| 20260506115203 | 26 | 257 | 1.6 | 3.2 | 1.98 | 0.38 | 0.38 | 96 | 1003.0 |
| 20260506114700 | 27 | 222 | 4.8 | 8.0 | 1.50 | 0.25 | 0.25 | 94 | 1003.1 |
| 20260506114158 | 26 | 133 | 4.8 | 9.7 | 0.00 | 0.00 | 0.00 | 93 | 1003.0 |
| 20260506113657 | 26 | 267 | 11.3 | 17.7 | 0.00 | 0.00 | 0.00 | 94 | 1002.8 |
| 20260506113154 | 26 | 300 | 6.4 | 11.3 | 0.00 | 0.00 | 0.00 | 94 | 1002.6 |
| 20260506112649 | 27 | 280 | 6.4 | 17.7 | 0.00 | 0.00 | 0.00 | 93 | 1002.5 |
| 20260506112147 | 28 | 354 | 8.0 | 12.9 | 0.00 | 0.00 | 0.00 | 93 | 1002.4 |
| 20260506111645 | 28 | 120 | 3.2 | 8.0 | 0.00 | 0.00 | 0.00 | 92 | 1002.1 |
| 20260506111142 | 30 | 311 | 1.6 | 3.2 | 0.00 | 0.00 | 0.00 | 91 | 1002.2 |
| 20260506110639 | 30 | 99 | 4.8 | 9.7 | 0.00 | 0.00 | 0.00 | 89 | 1002.2 |
| 20260506110137 | 31 | 226 | 0.0 | 4.8 | 0.00 | 0.00 | 0.00 | 88 | 1002.0 |
| 20260506105633 | 31 | 212 | 1.6 | 3.2 | 0.00 | 0.00 | 0.00 | 87 | 1002.0 |
| 20260506105130 | 31 | 241 | 0.0 | 1.6 | 0.00 | 0.00 | 0.00 | 87 | 1001.4 |
| 20260506104629 | 31 | 240 | 0.0 | 1.6 | 0.00 | 0.00 | 0.00 | 86 | 1001.5 |
| 20260506104126 | 31 | 247 | 1.6 | 3.2 | 0.00 | 0.00 | 0.00 | 86 | 1001.6 |
| 20260506103623 | 31 | 224 | 1.6 | 4.8 | 0.00 | 0.00 | 0.00 | 85 | 1001.6 |
| 20260506103120 | 31 | 235 | 0.0 | 1.6 | 0.00 | 0.00 | 0.00 | 84 | 1001.6 |
| 20260506102618 | 32 | 198 | 1.6 | 3.2 | 0.00 | 0.00 | 0.00 | 83 | 1001.4 |
| 20260506102115 | 32 | 253 | 0.0 | 3.2 | 0.00 | 0.00 | 0.00 | 82 | 1001.6 |
| 20260506101612 | 32 | 243 | 0.0 | 4.8 | 0.00 | 0.00 | 0.00 | 82 | 1001.3 |
| 20260506101108 | 32 | 233 | 1.6 | 8.0 | 0.00 | 0.00 | 0.00 | 81 | 1001.1 |
| 20260506100607 | 32 | 164 | 1.6 | 8.0 | 0.00 | 0.00 | 0.00 | 81 | 1001.0 |
| 20260506100105 | 32 | 170 | 1.6 | 9.7 | 0.00 | 0.00 | 0.00 | 80 | 1001.3 |
| 20260506095603 | 32 | 178 | 3.2 | 11.3 | 0.00 | 0.00 | 0.00 | 79 | 1001.0 |
| 20260506095059 | 33 | 193 | 1.6 | 8.0 | 0.00 | 0.00 | 0.00 | 79 | 1001.0 |
| 20260506094557 | 33 | 133 | 4.8 | 9.7 | 0.00 | 0.00 | 0.00 | 78 | 1000.9 |
| 20260506094055 | 33 | 151 | 1.6 | 4.8 | 0.00 | 0.00 | 0.00 | 78 | 1001.0 |
| 20260506093553 | 33 | 131 | 8.0 | 9.7 | 0.00 | 0.00 | 0.00 | 77 | 1001.2 |
| 20260506093050 | 33 | 113 | 1.6 | 9.7 | 0.00 | 0.00 | 0.00 | 72 | 1001.0 |
| 20260506092548 | 33 | 144 | 6.4 | 11.3 | 0.00 | 0.00 | 0.00 | 73 | 1000.9 |
| 20260506092045 | 34 | 139 | 4.8 | 11.3 | 0.00 | 0.00 | 0.00 | 71 | 1001.1 |
| 20260506091543 | 35 | 116 | 4.8 | 4.8 | 0.00 | 0.00 | 0.00 | 72 | 1000.9 |
| 20260506091039 | 34 | 246 | 1.6 | 9.7 | 0.00 | 0.00 | 0.00 | 72 | 1001.0 |
| 20260506090537 | 33 | 148 | 4.8 | 8.0 | 0.00 | 0.00 | 0.00 | 72 | 1001.1 |
| 20260506090033 | 33 | 120 | 3.2 | 11.3 | 0.00 | 0.00 | 0.00 | 73 | 1001.2 |
| 20260506085530 | 34 | 161 | 8.0 | 12.9 | 0.00 | 0.00 | 0.00 | 74 | 1001.0 |
| 20260506085027 | 35 | 48 | 4.8 | 9.7 | 0.00 | 0.00 | 0.00 | 74 | 1001.3 |
| 20260506084524 | 35 | 84 | 8.0 | 9.7 | 0.00 | 0.00 | 0.00 | 72 | 1000.9 |
| 20260506084020 | 35 | 211 | 3.2 | 4.8 | 0.00 | 0.00 | 0.00 | 71 | 1001.1 |
| 20260506083517 | 35 | 107 | 3.2 | 4.8 | 0.00 | 0.00 | 0.00 | 70 | 1000.8 |
| 20260506083015 | 36 | 255 | 0.0 | 3.2 | 0.00 | 0.00 | 0.00 | 69 | 1001.0 |
| 20260506082511 | 35 | 247 | 1.6 | 3.2 | 0.00 | 0.00 | 0.00 | 68 | 1000.8 |
| 20260506082007 | 35 | 244 | 0.0 | 1.6 | 0.00 | 0.00 | 0.00 | 70 | 1000.9 |
| 20260506081505 | 35 | 245 | 3.2 | 4.8 | 0.00 | 0.00 | 0.00 | 71 | 1000.7 |
| 20260506081003 | 35 | 304 | 1.6 | 3.2 | 0.00 | 0.00 | 0.00 | 70 | 1000.9 |
| 20260506080500 | 34 | 309 | 3.2 | 8.0 | 0.00 | 0.00 | 0.00 | 71 | 1000.8 |
| 20260506073443 | 33 | 21 | 3.2 | 11.3 | 0.00 | 0.00 | 0.00 | 73 | 1001.2 |
| 20260506072940 | 35 | 318 | 3.2 | 9.7 | 0.00 | 0.00 | 0.00 | 72 | 1001.5 |
| 20260506072437 | 35 | 30 | 1.6 | 3.2 | 0.00 | 0.00 | 0.00 | 70 | 1001.5 |
| 20260506071936 | 35 | 304 | 4.8 | 8.0 | 0.00 | 0.00 | 0.00 | 71 | 1001.7 |
| 20260506071433 | 34 | 261 | 0.0 | 3.2 | 0.00 | 0.00 | 0.00 | 70 | 1001.9 |
| 20260506070930 | 35 | 118 | 4.8 | 4.8 | 0.00 | 0.00 | 0.00 | 72 | 1001.9 |
| 20260506070427 | 34 | 54 | 4.8 | 4.8 | 0.00 | 0.00 | 0.00 | 73 | 1002.1 |
| 20260506062404 | 34 | 210 | 1.6 | 4.8 | 0.00 | 0.00 | 0.00 | 75 | 1002.9 |
| 20260506061900 | 34 | 271 | 1.6 | 4.8 | 0.00 | 0.00 | 0.00 | 73 | 1002.9 |
| 20260506061357 | 33 | 271 | 0.0 | 3.2 | 0.00 | 0.00 | 0.00 | 77 | 1003.2 |
| 20260506060855 | 35 | 282 | 3.2 | 3.2 | 0.00 | 0.00 | 0.00 | 74 | 1003.3 |
| 20260506060353 | 35 | 275 | 4.8 | 4.8 | 0.00 | 0.00 | 0.00 | 73 | 1003.4 |
| 20260506051325 | 33 | 298 | 4.8 | 9.7 | 0.00 | 0.00 | 0.00 | 76 | 1004.3 |
| 20260506050823 | 33 | 204 | 1.6 | 11.3 | 0.00 | 0.00 | 0.00 | 79 | 1004.1 |
| 20260506050319 | 33 | 63 | 0.0 | 3.2 | 0.00 | 0.00 | 0.00 | 79 | 1004.5 |
| 20260506044810 | 32 | 347 | 3.2 | 4.8 | 0.00 | 0.00 | 0.00 | 81 | 1004.5 |
| 20260506044308 | 32 | 260 | 1.6 | 3.2 | 0.00 | 0.00 | 0.00 | 82 | 1004.6 |
| 20260506043804 | 32 | 321 | 3.2 | 8.0 | 0.00 | 0.00 | 0.00 | 83 | 1005.0 |
| 20260506043302 | 32 | 335 | 0.0 | 4.8 | 0.00 | 0.00 | 0.00 | 83 | 1005.2 |
| 20260506042801 | 32 | 6 | 0.0 | 4.8 | 0.00 | 0.00 | 0.00 | 82 | 1005.2 |
| 20260506042259 | 32 | 67 | 4.8 | 4.8 | 0.00 | 0.00 | 0.00 | 83 | 1005.1 |
| 20260506041757 | 32 | 235 | 1.6 | 3.2 | 0.00 | 0.00 | 0.00 | 85 | 1005.4 |
| 20260506041254 | 31 | 339 | 1.6 | 3.2 | 0.00 | 0.00 | 0.00 | 85 | 1005.4 |
| 20260506040751 | 31 | 292 | 1.6 | 4.8 | 0.00 | 0.00 | 0.00 | 83 | 1005.5 |
| 20260506040248 | 32 | 279 | 3.2 | 9.7 | 0.00 | 0.00 | 0.00 | 83 | 1005.6 |
| 20260506035745 | 32 | 293 | 1.6 | 3.2 | 0.00 | 0.00 | 0.00 | 84 | 1005.4 |
| 20260506035242 | 32 | 183 | 1.6 | 3.2 | 0.00 | 0.00 | 0.00 | 82 | 1005.7 |
| 20260506034738 | 32 | 258 | 0.0 | 1.6 | 0.00 | 0.00 | 0.00 | 83 | 1005.7 |
| 20260506034236 | 32 | 284 | 0.0 | 1.6 | 0.00 | 0.00 | 0.00 | 83 | 1005.8 |
| 20260506033733 | 32 | 294 | 0.0 | 1.6 | 0.00 | 0.00 | 0.00 | 82 | 1005.8 |
| 20260506033230 | 32 | 330 | 4.8 | 4.8 | 0.00 | 0.00 | 0.00 | 82 | 1005.5 |
| 20260506032727 | 32 | 299 | 3.2 | 9.7 | 0.00 | 0.00 | 0.00 | 85 | 1005.6 |
| 20260506032223 | 31 | 256 | 1.6 | 3.2 | 0.00 | 0.00 | 0.00 | 87 | 1005.8 |
| 20260506031720 | 31 | 356 | 3.2 | 4.8 | 0.00 | 0.00 | 0.00 | 85 | 1005.9 |
| 20260506031218 | 32 | 242 | 1.6 | 3.2 | 0.00 | 0.00 | 0.00 | 85 | 1005.8 |
| 20260506030716 | 31 | 244 | 0.0 | 1.6 | 0.00 | 0.00 | 0.00 | 85 | 1005.8 |
| 20260506030213 | 31 | 314 | 3.2 | 8.0 | 0.00 | 0.00 | 0.00 | 85 | 1006.0 |
| 20260506025710 | 31 | 38 | 1.6 | 3.2 | 0.00 | 0.00 | 0.00 | 86 | 1005.8 |
| 20260506025206 | 31 | 35 | 1.6 | 3.2 | 0.00 | 0.00 | 0.00 | 87 | 1005.7 |
| 20260506024703 | 31 | 259 | 1.6 | 3.2 | 0.00 | 0.00 | 0.00 | 86 | 1006.0 |
| 20260506024159 | 31 | 290 | 1.6 | 4.8 | 0.00 | 0.00 | 0.00 | 88 | 1006.0 |
| 20260506023656 | 31 | 345 | 0.0 | 1.6 | 0.00 | 0.00 | 0.00 | 89 | 1006.1 |
| 20260506023153 | 31 | 295 | 1.6 | 1.6 | 0.00 | 0.00 | 0.00 | 88 | 1006.1 |
| 20260506022650 | 30 | 312 | 1.6 | 3.2 | 0.00 | 0.00 | 0.00 | 88 | 1006.1 |
| 20260506022148 | 30 | 4 | 3.2 | 3.2 | 0.00 | 0.00 | 0.00 | 89 | 1006.4 |
| 20260506021646 | 30 | 282 | 1.6 | 3.2 | 0.00 | 0.00 | 0.00 | 90 | 1006.2 |
| 20260506021142 | 30 | 342 | 1.6 | 3.2 | 0.00 | 0.00 | 0.00 | 91 | 1006.0 |
| 20260506020639 | 30 | 327 | 1.6 | 4.8 | 0.00 | 0.00 | 0.00 | 91 | 1006.4 |
| 20260506020137 | 30 | 221 | 0.0 | 3.2 | 0.00 | 0.00 | 0.00 | 91 | 1006.1 |
| 20260506015634 | 30 | 273 | 3.2 | 3.2 | 0.00 | 0.00 | 0.00 | 91 | 1006.3 |
| 20260506015132 | 31 | 272 | 4.8 | 4.8 | 0.00 | 0.00 | 0.00 | 89 | 1006.2 |
| 20260506014629 | 30 | 250 | 0.0 | 1.6 | 0.00 | 0.00 | 0.00 | 91 | 1006.2 |
| 20260506014124 | 30 | 272 | 1.6 | 3.2 | 0.00 | 0.00 | 0.00 | 91 | 1006.4 |
| 20260506013623 | 29 | 242 | 1.6 | 3.2 | 0.00 | 0.00 | 0.00 | 92 | 1006.4 |
| 20260506013119 | 30 | 255 | 1.6 | 8.0 | 0.00 | 0.00 | 0.00 | 92 | 1006.4 |
| 20260506012616 | 30 | 253 | 1.6 | 3.2 | 0.00 | 0.00 | 0.00 | 92 | 1006.0 |
| 20260506012112 | 30 | 249 | 0.0 | 1.6 | 0.00 | 0.00 | 0.00 | 92 | 1006.2 |
| 20260506011610 | 30 | 245 | 0.0 | 1.6 | 0.00 | 0.00 | 0.00 | 93 | 1005.9 |
| 20260506011106 | 29 | 303 | 4.8 | 4.8 | 0.00 | 0.00 | 0.00 | 93 | 1005.8 |
| 20260506010600 | 29 | 281 | 3.2 | 3.2 | 0.00 | 0.00 | 0.00 | 93 | 1006.0 |
| 20260506010056 | 28 | 257 | 0.0 | 3.2 | 0.00 | 0.00 | 0.00 | 95 | 1005.8 |
| 20260506005553 | 28 | 251 | 0.0 | 1.6 | 0.00 | 0.00 | 0.00 | 96 | 1006.0 |
| 20260506005049 | 27 | 256 | 0.0 | 3.2 | 0.00 | 0.00 | 0.00 | 97 | 1005.8 |
| 20260506004546 | 27 | 247 | 0.0 | 0.0 | 0.00 | 0.00 | 0.00 | 98 | 1005.8 |
| 20260506004043 | 26 | 245 | 0.0 | 1.6 | 0.00 | 0.00 | 0.00 | 99 | 1005.8 |
| 20260506003539 | 26 | 261 | 1.6 | 1.6 | 0.00 | 0.00 | 0.00 | 99 | 1005.6 |
| 20260506003036 | 26 | 253 | 0.0 | 1.6 | 0.00 | 0.00 | 0.00 | 99 | 1005.5 |
| 20260506002532 | 26 | 255 | 0.0 | 3.2 | 0.00 | 0.00 | 0.00 | 99 | 1005.6 |
| 20260506002028 | 26 | 261 | 1.6 | 1.6 | 0.00 | 0.00 | 0.00 | 99 | 1005.5 |
| 20260506001524 | 26 | 221 | 0.0 | 0.0 | 0.00 | 0.00 | 0.00 | 99 | 1005.3 |
| 20260506001021 | 26 | 253 | 0.0 | 1.6 | 0.00 | 0.00 | 0.00 | 99 | 1005.3 |
| 20260506000519 | 26 | 264 | 0.0 | 0.0 | 0.00 | 0.00 | 0.00 | 99 | 1005.4 |
| 20260506000016 | 26 | 248 | 0.0 | 0.0 | 0.00 | 0.00 | 0.00 | 99 | 1005.1 |
| 20260505235514 | 26 | 242 | 0.0 | 0.0 | 0.00 | 0.00 | 0.00 | 99 | 1005.1 |
| 20260505235010 | 26 | 299 | 1.6 | 1.6 | 0.00 | 0.00 | 0.00 | 99 | 1005.2 |
| 20260505234508 | 26 | 278 | 1.6 | 1.6 | 0.00 | 0.00 | 0.00 | 99 | 1005.1 |
| 20260505234004 | 26 | 257 | 0.0 | 0.0 | 0.00 | 0.00 | 0.00 | 99 | 1004.8 |
| 20260505233502 | 26 | 258 | 1.6 | 1.6 | 0.00 | 0.00 | 0.00 | 99 | 1004.9 |
| 20260505232959 | 26 | 303 | 1.6 | 3.2 | 0.00 | 0.00 | 0.00 | 99 | 1005.0 |
| 20260505232457 | 26 | 261 | 0.0 | 0.0 | 0.00 | 0.00 | 0.00 | 99 | 1004.7 |
| 20260505231954 | 26 | 267 | 0.0 | 1.6 | 0.00 | 0.00 | 0.00 | 99 | 1004.7 |
| 20260505231451 | 26 | 274 | 0.0 | 1.6 | 0.00 | 0.00 | 0.00 | 99 | 1004.7 |
| 20260505230949 | 26 | 249 | 0.0 | 0.0 | 0.00 | 0.00 | 0.00 | 99 | 1004.6 |
| 20260505230447 | 26 | 257 | 0.0 | 0.0 | 0.00 | 0.00 | 0.00 | 99 | 1004.6 |
| 20260505225943 | 26 | 257 | 0.0 | 0.0 | 0.00 | 0.00 | 0.00 | 99 | 1004.6 |
| 20260505225440 | 26 | 242 | 0.0 | 0.0 | 0.00 | 0.00 | 0.00 | 99 | 1004.5 |
| 20260505224936 | 26 | 247 | 0.0 | 0.0 | 0.00 | 0.00 | 0.00 | 99 | 1004.3 |
| 20260505224433 | 26 | 247 | 0.0 | 0.0 | 0.00 | 0.00 | 0.00 | 99 | 1004.2 |
| 20260505223930 | 26 | 239 | 0.0 | 0.0 | 0.00 | 0.00 | 0.00 | 99 | 1004.4 |
| 20260505223427 | 26 | 240 | 0.0 | 0.0 | 0.00 | 0.00 | 0.00 | 99 | 1004.1 |
| 20260505222923 | 25 | 244 | 0.0 | 0.0 | 0.00 | 0.00 | 0.00 | 99 | 1004.2 |
| 20260505222420 | 26 | 253 | 0.0 | 0.0 | 0.00 | 0.00 | 0.00 | 99 | 1004.2 |
| 20260505221916 | 26 | 245 | 0.0 | 0.0 | 0.00 | 0.00 | 0.00 | 99 | 1004.3 |
| 20260505221414 | 26 | 248 | 0.0 | 0.0 | 0.00 | 0.00 | 0.00 | 99 | 1004.1 |
| 20260505220910 | 26 | 247 | 0.0 | 0.0 | 0.00 | 0.00 | 0.00 | 99 | 1004.2 |
| 20260505220407 | 26 | 247 | 0.0 | 0.0 | 0.00 | 0.00 | 0.00 | 99 | 1004.3 |
| 20260505215905 | 26 | 257 | 0.0 | 1.6 | 0.00 | 0.00 | 0.00 | 99 | 1004.3 |
| 20260505215403 | 26 | 243 | 0.0 | 0.0 | 0.00 | 0.00 | 0.00 | 99 | 1004.3 |
| 20260505214900 | 26 | 243 | 0.0 | 0.0 | 0.00 | 0.00 | 0.00 | 99 | 1004.4 |
| 20260505214358 | 26 | 246 | 0.0 | 1.6 | 0.00 | 0.00 | 0.00 | 99 | 1004.2 |
| 20260505213855 | 26 | 241 | 0.0 | 1.6 | 0.00 | 0.00 | 0.00 | 99 | 1004.3 |
| 20260505213353 | 26 | 243 | 0.0 | 0.0 | 0.00 | 0.00 | 0.00 | 99 | 1004.1 |
| 20260505212849 | 26 | 241 | 0.0 | 0.0 | 0.00 | 0.00 | 0.00 | 99 | 1004.1 |
| 20260505212346 | 26 | 241 | 0.0 | 0.0 | 0.00 | 0.00 | 0.00 | 99 | 1003.9 |
| 20260505211842 | 26 | 240 | 0.0 | 0.0 | 0.00 | 0.00 | 0.00 | 99 | 1003.8 |
| 20260505211340 | 26 | 237 | 0.0 | 0.0 | 0.00 | 0.00 | 0.00 | 99 | 1003.7 |
| 20260505210836 | 26 | 237 | 0.0 | 0.0 | 0.00 | 0.00 | 0.00 | 99 | 1003.6 |
| 20260505210333 | 26 | 237 | 0.0 | 0.0 | 0.00 | 0.00 | 0.00 | 99 | 1004.0 |
| 20260505205830 | 26 | 240 | 0.0 | 0.0 | 0.00 | 0.00 | 0.00 | 99 | 1004.0 |
| 20260505205328 | 26 | 242 | 0.0 | 0.0 | 0.00 | 0.00 | 0.00 | 99 | 1003.9 |
| 20260505204824 | 26 | 244 | 0.0 | 0.0 | 0.00 | 0.00 | 0.00 | 99 | 1004.1 |
| 20260505204323 | 26 | 250 | 0.0 | 0.0 | 0.00 | 0.00 | 0.00 | 99 | 1004.2 |
| 20260505203820 | 26 | 249 | 0.0 | 0.0 | 0.00 | 0.00 | 0.00 | 99 | 1004.2 |
| 20260505203316 | 26 | 244 | 0.0 | 0.0 | 0.00 | 0.00 | 0.00 | 99 | 1004.0 |
| 20260505202812 | 26 | 243 | 0.0 | 0.0 | 0.00 | 0.00 | 0.00 | 99 | 1004.1 |
| 20260505202309 | 26 | 252 | 0.0 | 0.0 | 0.00 | 0.00 | 0.00 | 99 | 1003.8 |
| 20260505201805 | 26 | 239 | 0.0 | 0.0 | 0.00 | 0.00 | 0.00 | 99 | 1004.0 |
| 20260505201303 | 26 | 243 | 0.0 | 0.0 | 0.00 | 0.00 | 0.00 | 99 | 1003.8 |
| 20260505200801 | 26 | 250 | 0.0 | 1.6 | 0.00 | 0.00 | 0.00 | 99 | 1004.1 |
| 20260505200258 | 26 | 236 | 1.6 | 1.6 | 0.00 | 0.00 | 0.00 | 99 | 1004.0 |
| 20260505195753 | 26 | 247 | 0.0 | 0.0 | 0.00 | 0.00 | 0.00 | 99 | 1003.9 |
| 20260505195251 | 26 | 240 | 0.0 | 0.0 | 0.00 | 0.00 | 0.00 | 99 | 1003.9 |
| 20260505194748 | 26 | 237 | 0.0 | 0.0 | 0.00 | 0.00 | 0.00 | 99 | 1004.2 |
| 20260505194245 | 26 | 246 | 0.0 | 0.0 | 0.00 | 0.00 | 0.00 | 99 | 1004.1 |
| 20260505193740 | 26 | 243 | 0.0 | 0.0 | 0.00 | 0.00 | 0.00 | 98 | 1004.4 |
| 20260505193238 | 26 | 241 | 0.0 | 1.6 | 0.00 | 0.00 | 0.00 | 98 | 1004.2 |
| 20260505192736 | 26 | 243 | 0.0 | 0.0 | 0.00 | 0.00 | 0.00 | 98 | 1004.3 |
| 20260505192233 | 26 | 239 | 0.0 | 0.0 | 0.00 | 0.00 | 0.00 | 98 | 1004.3 |